| time (UTC) | temp F | wind direction | speed MPH | gust MPH | rain 1hr in | rain 24hr in | rain mn in | humidity % | barometer mb |
| 20260906011018 | 65 | 232 | 2.0 | 7.0 | 0.00 | 0.00 | 0.00 | 54 | 1017.6 |
| 20260906010525 | 65 | 194 | 2.0 | 7.0 | 0.00 | 0.00 | 0.00 | 54 | 1017.6 |
| 20260906010054 | 65 | 225 | 2.0 | 8.0 | 0.00 | 0.00 | 0.00 | 53 | 1017.6 |
| 20260906005525 | 65 | 216 | 4.0 | 8.0 | 0.00 | 0.00 | 0.00 | 53 | 1017.7 |
| 20260906005025 | 65 | 218 | 2.0 | 7.0 | 0.00 | 0.00 | 0.00 | 54 | 1017.5 |
| 20260906004559 | 65 | 246 | 3.0 | 11.0 | 0.00 | 0.00 | 0.00 | 53 | 1017.6 |
| 20260906004029 | 65 | 231 | 1.0 | 11.0 | 0.00 | 0.00 | 0.00 | 54 | 1017.5 |
| 20260906003521 | 65 | 238 | 5.0 | 10.0 | 0.00 | 0.00 | 0.00 | 54 | 1017.5 |
| 20260906003042 | 65 | 200 | 2.0 | 8.0 | 0.00 | 0.00 | 0.00 | 54 | 1017.6 |
| 20260906002521 | 65 | 194 | 4.0 | 8.0 | 0.00 | 0.00 | 0.00 | 53 | 1017.6 |
| 20260906002020 | 65 | 220 | 1.0 | 7.0 | 0.00 | 0.00 | 0.00 | 54 | 1017.6 |
| 20260906001556 | 65 | 198 | 2.0 | 7.0 | 0.00 | 0.00 | 0.00 | 53 | 1017.6 |
| 20260906001021 | 66 | 0 | 3.0 | 8.0 | 0.00 | 0.00 | 0.00 | 52 | 1017.7 |
| 20260906000525 | 66 | 190 | 2.0 | 8.0 | 0.00 | 0.00 | 0.00 | 51 | 1017.6 |
| 20260906000042 | 66 | 205 | 4.0 | 8.0 | 0.00 | 0.00 | 0.00 | 51 | 1017.5 |
| 20260905235524 | 66 | 192 | 3.0 | 8.0 | 0.00 | 0.00 | 0.00 | 51 | 1017.6 |
| 20260905235024 | 66 | 220 | 4.0 | 8.0 | 0.00 | 0.00 | 0.00 | 50 | 1017.5 |
| 20260905234547 | 66 | 240 | 2.0 | 8.0 | 0.00 | 0.00 | 0.00 | 52 | 1017.5 |
| 20260905234024 | 66 | 190 | 4.0 | 8.0 | 0.00 | 0.00 | 0.00 | 51 | 1017.7 |
| 20260905233521 | 67 | 225 | 4.0 | 8.0 | 0.00 | 0.00 | 0.00 | 50 | 1017.6 |
| 20260905233053 | 67 | 167 | 3.0 | 6.0 | 0.00 | 0.00 | 0.00 | 50 | 1017.7 |
| 20260905232527 | 66 | 176 | 3.0 | 9.0 | 0.00 | 0.00 | 0.00 | 50 | 1017.7 |
| 20260905232024 | 66 | 214 | 4.0 | 10.0 | 0.00 | 0.00 | 0.00 | 50 | 1017.8 |
| 20260905231541 | 66 | 222 | 6.0 | 10.0 | 0.00 | 0.00 | 0.00 | 50 | 1017.7 |
| 20260905231028 | 66 | 216 | 2.0 | 7.0 | 0.00 | 0.00 | 0.00 | 49 | 1017.7 |
| 20260905230525 | 67 | 191 | 2.0 | 8.0 | 0.00 | 0.00 | 0.00 | 48 | 1017.8 |
| 20260905230045 | 68 | 47 | 2.0 | 8.0 | 0.00 | 0.00 | 0.00 | 48 | 1017.7 |
| 20260905225530 | 68 | 232 | 2.0 | 7.0 | 0.00 | 0.00 | 0.00 | 48 | 1017.8 |
| 20260905225019 | 67 | 344 | 2.0 | 7.0 | 0.00 | 0.00 | 0.00 | 51 | 1017.9 |
| 20260905224540 | 65 | 227 | 2.0 | 12.0 | 0.00 | 0.00 | 0.00 | 51 | 1017.9 |
| 20260905224021 | 65 | 268 | 5.0 | 12.0 | 0.00 | 0.00 | 0.00 | 51 | 1018.0 |
| 20260905223521 | 64 | 214 | 5.0 | 10.0 | 0.00 | 0.00 | 0.00 | 52 | 1018.0 |
| 20260905223049 | 64 | 211 | 3.0 | 10.0 | 0.00 | 0.00 | 0.00 | 52 | 1017.9 |
| 20260905222524 | 64 | 227 | 4.0 | 10.0 | 0.00 | 0.00 | 0.00 | 52 | 1018.0 |
| 20260905222024 | 64 | 267 | 3.0 | 8.0 | 0.00 | 0.00 | 0.00 | 52 | 1018.0 |
| 20260905221547 | 64 | 229 | 4.0 | 10.0 | 0.00 | 0.00 | 0.00 | 52 | 1018.0 |
| 20260905221023 | 64 | 227 | 5.0 | 12.0 | 0.00 | 0.00 | 0.00 | 51 | 1018.0 |
| 20260905220524 | 65 | 232 | 6.0 | 12.0 | 0.00 | 0.00 | 0.00 | 50 | 1018.0 |
| 20260905220042 | 65 | 229 | 4.0 | 8.0 | 0.00 | 0.00 | 0.00 | 50 | 1018.0 |
| 20260905215520 | 65 | 191 | 3.0 | 8.0 | 0.00 | 0.00 | 0.00 | 50 | 1018.1 |
| 20260905215024 | 66 | 188 | 4.0 | 8.0 | 0.00 | 0.00 | 0.00 | 50 | 1018.1 |
| 20260905214550 | 66 | 198 | 4.0 | 8.0 | 0.00 | 0.00 | 0.00 | 50 | 1018.1 |
| 20260905214024 | 65 | 231 | 2.0 | 8.0 | 0.00 | 0.00 | 0.00 | 49 | 1018.0 |
| 20260905213525 | 66 | 258 | 3.0 | 8.0 | 0.00 | 0.00 | 0.00 | 48 | 1018.0 |
| 20260905213049 | 67 | 229 | 3.0 | 11.0 | 0.00 | 0.00 | 0.00 | 47 | 1018.1 |
| 20260905212526 | 68 | 191 | 4.0 | 11.0 | 0.00 | 0.00 | 0.00 | 46 | 1018.1 |
| 20260905212022 | 69 | 200 | 4.0 | 11.0 | 0.00 | 0.00 | 0.00 | 47 | 1018.0 |
| 20260905211545 | 69 | 221 | 2.0 | 7.0 | 0.00 | 0.00 | 0.00 | 48 | 1018.0 |
| 20260905211019 | 68 | 202 | 3.0 | 14.0 | 0.00 | 0.00 | 0.00 | 49 | 1018.0 |
| 20260905210521 | 67 | 208 | 4.0 | 14.0 | 0.00 | 0.00 | 0.00 | 48 | 1018.1 |
| 20260905210053 | 67 | 250 | 4.0 | 13.0 | 0.00 | 0.00 | 0.00 | 48 | 1018.1 |
| 20260905205524 | 67 | 224 | 2.0 | 7.0 | 0.00 | 0.00 | 0.00 | 48 | 1018.0 |
| 20260905205024 | 67 | 215 | 4.0 | 10.0 | 0.00 | 0.00 | 0.00 | 48 | 1018.1 |
| 20260905204547 | 67 | 214 | 3.0 | 10.0 | 0.00 | 0.00 | 0.00 | 51 | 1018.1 |
| 20260905204024 | 67 | 250 | 4.0 | 10.0 | 0.00 | 0.00 | 0.00 | 51 | 1017.8 |
| 20260905203526 | 67 | 186 | 4.0 | 11.0 | 0.00 | 0.00 | 0.00 | 50 | 1018.1 |
| 20260905203042 | 68 | 176 | 3.0 | 13.0 | 0.00 | 0.00 | 0.00 | 49 | 1018.1 |
| 20260905202522 | 68 | 184 | 5.0 | 13.0 | 0.00 | 0.00 | 0.00 | 49 | 1018.1 |
| 20260905202019 | 69 | 276 | 6.0 | 12.0 | 0.00 | 0.00 | 0.00 | 48 | 1018.0 |
| 20260905201541 | 68 | 208 | 4.0 | 15.0 | 0.00 | 0.00 | 0.00 | 49 | 1017.9 |
| 20260905201020 | 69 | 205 | 5.0 | 15.0 | 0.00 | 0.00 | 0.00 | 50 | 1017.9 |
| 20260905200521 | 68 | 59 | 5.0 | 15.0 | 0.00 | 0.00 | 0.00 | 49 | 1018.0 |
| 20260905200108 | 68 | 198 | 4.0 | 10.0 | 0.00 | 0.00 | 0.00 | 51 | 1018.0 |
| 20260905195520 | 68 | 183 | 3.0 | 12.0 | 0.00 | 0.00 | 0.00 | 49 | 1018.0 |
| 20260905195020 | 68 | 177 | 2.0 | 12.0 | 0.00 | 0.00 | 0.00 | 51 | 1018.2 |
| 20260905194542 | 68 | 149 | 4.0 | 10.0 | 0.00 | 0.00 | 0.00 | 50 | 1018.1 |
| 20260905194024 | 68 | 190 | 3.0 | 10.0 | 0.00 | 0.00 | 0.00 | 49 | 1018.1 |
| 20260905193521 | 68 | 185 | 4.0 | 10.0 | 0.00 | 0.00 | 0.00 | 51 | 1018.1 |
| 20260905193043 | 68 | 210 | 4.0 | 10.0 | 0.00 | 0.00 | 0.00 | 51 | 1018.2 |
| 20260905192520 | 68 | 221 | 4.0 | 9.0 | 0.00 | 0.00 | 0.00 | 51 | 1018.1 |
| 20260905192020 | 67 | 215 | 4.0 | 10.0 | 0.00 | 0.00 | 0.00 | 51 | 1018.2 |
| 20260905191542 | 66 | 192 | 4.0 | 11.0 | 0.00 | 0.00 | 0.00 | 53 | 1018.2 |
| 20260905191020 | 66 | 219 | 4.0 | 11.0 | 0.00 | 0.00 | 0.00 | 52 | 1018.3 |
| 20260905190519 | 66 | 194 | 3.0 | 10.0 | 0.00 | 0.00 | 0.00 | 52 | 1018.3 |
| 20260905190040 | 66 | 81 | 4.0 | 12.0 | 0.00 | 0.00 | 0.00 | 52 | 1018.3 |
| 20260905185603 | 67 | 214 | 5.0 | 12.0 | 0.00 | 0.00 | 0.00 | 51 | 1018.2 |
| 20260905185022 | 67 | 229 | 2.0 | 9.0 | 0.00 | 0.00 | 0.00 | 51 | 1018.2 |
| 20260905184555 | 67 | 252 | 4.0 | 9.0 | 0.00 | 0.00 | 0.00 | 50 | 1018.3 |
| 20260905184023 | 67 | 238 | 1.0 | 9.0 | 0.00 | 0.00 | 0.00 | 53 | 1018.3 |
| 20260905183523 | 66 | 209 | 3.0 | 9.0 | 0.00 | 0.00 | 0.00 | 53 | 1018.4 |
| 20260905183053 | 66 | 248 | 3.0 | 9.0 | 0.00 | 0.00 | 0.00 | 52 | 1018.4 |
| 20260905182521 | 65 | 216 | 4.0 | 7.0 | 0.00 | 0.00 | 0.00 | 54 | 1018.3 |
| 20260905182028 | 65 | 206 | 2.0 | 6.0 | 0.00 | 0.00 | 0.00 | 54 | 1018.3 |
| 20260905181553 | 65 | 192 | 2.0 | 7.0 | 0.00 | 0.00 | 0.00 | 53 | 1018.3 |
| 20260905181023 | 65 | 190 | 3.0 | 7.0 | 0.00 | 0.00 | 0.00 | 54 | 1018.3 |
| 20260905180524 | 65 | 194 | 3.0 | 7.0 | 0.00 | 0.00 | 0.00 | 55 | 1018.2 |
| 20260905180045 | 64 | 204 | 3.0 | 6.0 | 0.00 | 0.00 | 0.00 | 55 | 1018.2 |
| 20260905175525 | 64 | 221 | 1.0 | 4.0 | 0.00 | 0.00 | 0.00 | 57 | 1018.1 |
| 20260905175021 | 65 | 262 | 2.0 | 6.0 | 0.00 | 0.00 | 0.00 | 56 | 1018.0 |
| 20260905174541 | 65 | 259 | 1.0 | 7.0 | 0.00 | 0.00 | 0.00 | 58 | 1018.0 |
| 20260905174022 | 65 | 5 | 2.0 | 8.0 | 0.00 | 0.00 | 0.00 | 55 | 1018.1 |
| 20260905173520 | 64 | 286 | 2.0 | 9.0 | 0.00 | 0.00 | 0.00 | 56 | 1018.1 |
| 20260905173049 | 63 | 211 | 2.0 | 9.0 | 0.00 | 0.00 | 0.00 | 57 | 1018.0 |
| 20260905172525 | 63 | 73 | 3.0 | 6.0 | 0.00 | 0.00 | 0.00 | 58 | 1018.0 |
| 20260905172025 | 63 | 0 | 2.0 | 7.0 | 0.00 | 0.00 | 0.00 | 57 | 1018.0 |
| 20260905171540 | 63 | 200 | 3.0 | 7.0 | 0.00 | 0.00 | 0.00 | 58 | 1018.0 |
| 20260905171027 | 63 | 228 | 3.0 | 5.0 | 0.00 | 0.00 | 0.00 | 57 | 1018.0 |
| 20260905170522 | 63 | 207 | 1.0 | 4.0 | 0.00 | 0.00 | 0.00 | 58 | 1017.9 |
| 20260905170041 | 63 | 27 | 1.0 | 4.0 | 0.00 | 0.00 | 0.00 | 58 | 1017.9 |
| 20260905165521 | 63 | 130 | 1.0 | 4.0 | 0.00 | 0.00 | 0.00 | 58 | 1017.8 |
| 20260905165023 | 62 | 301 | 2.0 | 4.0 | 0.00 | 0.00 | 0.00 | 59 | 1017.8 |
| 20260905164544 | 61 | 228 | 1.0 | 4.0 | 0.00 | 0.00 | 0.00 | 60 | 1017.8 |
| 20260905164027 | 61 | 225 | 1.0 | 4.0 | 0.00 | 0.00 | 0.00 | 61 | 1017.8 |
| 20260905163524 | 60 | 0 | 1.0 | 3.0 | 0.00 | 0.00 | 0.00 | 61 | 1017.8 |
| 20260905163041 | 59 | 224 | 1.0 | 3.0 | 0.00 | 0.00 | 0.00 | 63 | 1017.8 |
| 20260905162521 | 58 | 200 | 0.0 | 2.0 | 0.00 | 0.00 | 0.00 | 65 | 1017.8 |
| 20260905162022 | 58 | 0 | 0.0 | 3.0 | 0.00 | 0.00 | 0.00 | 65 | 1017.8 |
| 20260905161543 | 57 | 352 | 0.0 | 3.0 | 0.00 | 0.00 | 0.00 | 65 | 1017.8 |
| 20260905161028 | 57 | 35 | 1.0 | 3.0 | 0.00 | 0.00 | 0.00 | 67 | 1017.7 |
| 20260905160520 | 56 | 0 | 0.0 | 0.0 | 0.00 | 0.00 | 0.00 | 67 | 1017.7 |
| 20260905160040 | 56 | 0 | 0.0 | 0.0 | 0.00 | 0.00 | 0.00 | 69 | 1017.7 |
| 20260905155521 | 56 | 0 | 0.0 | 0.0 | 0.00 | 0.00 | 0.00 | 68 | 1017.7 |
| 20260905155019 | 56 | 0 | 0.0 | 0.0 | 0.00 | 0.00 | 0.00 | 70 | 1017.6 |
| 20260905154539 | 56 | 0 | 0.0 | 0.0 | 0.00 | 0.00 | 0.00 | 68 | 1017.7 |
| 20260905154020 | 56 | 0 | 0.0 | 3.0 | 0.00 | 0.00 | 0.00 | 66 | 1017.7 |
| 20260905153524 | 56 | 0 | 0.0 | 3.0 | 0.00 | 0.00 | 0.00 | 67 | 1017.7 |
| 20260905153040 | 55 | 40 | 0.0 | 0.0 | 0.00 | 0.00 | 0.00 | 72 | 1017.6 |
| 20260905152525 | 55 | 0 | 0.0 | 0.0 | 0.00 | 0.00 | 0.00 | 72 | 1017.6 |
| 20260905152023 | 55 | 0 | 0.0 | 0.0 | 0.00 | 0.00 | 0.00 | 72 | 1017.5 |
| 20260905151555 | 55 | 0 | 0.0 | 0.0 | 0.00 | 0.00 | 0.00 | 72 | 1017.5 |
| 20260905151026 | 55 | 0 | 0.0 | 0.0 | 0.00 | 0.00 | 0.00 | 72 | 1017.5 |
| 20260905150524 | 55 | 0 | 0.0 | 0.0 | 0.00 | 0.00 | 0.00 | 72 | 1017.5 |
| 20260905150040 | 55 | 0 | 0.0 | 0.0 | 0.00 | 0.00 | 0.00 | 71 | 1017.5 |
| 20260905145520 | 55 | 0 | 0.0 | 0.0 | 0.00 | 0.00 | 0.00 | 71 | 1017.5 |
| 20260905145021 | 55 | 0 | 0.0 | 0.0 | 0.00 | 0.00 | 0.00 | 71 | 1017.5 |
| 20260905144546 | 55 | 0 | 0.0 | 0.0 | 0.00 | 0.00 | 0.00 | 70 | 1017.5 |
| 20260905144021 | 55 | 0 | 0.0 | 0.0 | 0.00 | 0.00 | 0.00 | 70 | 1017.5 |
| 20260905143520 | 55 | 0 | 0.0 | 0.0 | 0.00 | 0.00 | 0.00 | 70 | 1017.5 |
| 20260905143041 | 55 | 0 | 0.0 | 0.0 | 0.00 | 0.00 | 0.00 | 70 | 1017.5 |
| 20260905142530 | 55 | 0 | 0.0 | 0.0 | 0.00 | 0.00 | 0.00 | 70 | 1017.5 |
| 20260905142023 | 55 | 0 | 0.0 | 0.0 | 0.00 | 0.00 | 0.00 | 70 | 1017.4 |
| 20260905141542 | 55 | 0 | 0.0 | 0.0 | 0.00 | 0.00 | 0.00 | 69 | 1017.3 |
| 20260905141025 | 54 | 0 | 0.0 | 0.0 | 0.00 | 0.00 | 0.00 | 69 | 1017.2 |
| 20260905140521 | 54 | 0 | 0.0 | 0.0 | 0.00 | 0.00 | 0.00 | 69 | 1017.1 |
| 20260905140040 | 54 | 0 | 0.0 | 0.0 | 0.00 | 0.00 | 0.00 | 69 | 1017.1 |
| 20260905135521 | 54 | 0 | 0.0 | 0.0 | 0.00 | 0.00 | 0.00 | 69 | 1017.2 |
| 20260905135021 | 54 | 0 | 0.0 | 0.0 | 0.00 | 0.00 | 0.00 | 69 | 1017.1 |
| 20260905134542 | 54 | 0 | 0.0 | 0.0 | 0.00 | 0.00 | 0.00 | 69 | 1017.0 |
| 20260905134025 | 54 | 0 | 0.0 | 0.0 | 0.00 | 0.00 | 0.00 | 69 | 1016.9 |
| 20260905133524 | 54 | 0 | 0.0 | 0.0 | 0.00 | 0.00 | 0.00 | 68 | 1016.9 |
| 20260905133042 | 54 | 0 | 0.0 | 0.0 | 0.00 | 0.00 | 0.00 | 68 | 1017.0 |
| 20260905132521 | 54 | 0 | 0.0 | 0.0 | 0.00 | 0.00 | 0.00 | 68 | 1016.9 |
| 20260905132021 | 54 | 0 | 0.0 | 0.0 | 0.00 | 0.00 | 0.00 | 68 | 1016.8 |
| 20260905131551 | 54 | 0 | 0.0 | 0.0 | 0.00 | 0.00 | 0.00 | 68 | 1016.9 |
| 20260905131022 | 54 | 0 | 0.0 | 0.0 | 0.00 | 0.00 | 0.00 | 68 | 1016.9 |
| 20260905130520 | 54 | 0 | 0.0 | 0.0 | 0.00 | 0.00 | 0.00 | 68 | 1016.9 |
| 20260905130040 | 54 | 0 | 0.0 | 0.0 | 0.00 | 0.00 | 0.00 | 68 | 1016.8 |
| 20260905125523 | 54 | 0 | 0.0 | 0.0 | 0.00 | 0.00 | 0.00 | 67 | 1016.8 |
| 20260905125024 | 54 | 0 | 0.0 | 0.0 | 0.00 | 0.00 | 0.00 | 67 | 1016.8 |
| 20260905124542 | 54 | 0 | 0.0 | 0.0 | 0.00 | 0.00 | 0.00 | 67 | 1016.8 |
| 20260905124022 | 54 | 0 | 0.0 | 0.0 | 0.00 | 0.00 | 0.00 | 67 | 1016.9 |
| 20260905123525 | 54 | 0 | 0.0 | 1.0 | 0.00 | 0.00 | 0.00 | 67 | 1016.9 |
| 20260905123102 | 54 | 0 | 0.0 | 2.0 | 0.00 | 0.00 | 0.00 | 67 | 1016.9 |
| 20260905122520 | 54 | 0 | 0.0 | 2.0 | 0.00 | 0.00 | 0.00 | 67 | 1016.9 |
| 20260905122020 | 54 | 0 | 0.0 | 0.0 | 0.00 | 0.00 | 0.00 | 67 | 1017.0 |
| 20260905121539 | 54 | 0 | 0.0 | 0.0 | 0.00 | 0.00 | 0.00 | 67 | 1017.1 |
| 20260905121019 | 54 | 0 | 0.0 | 0.0 | 0.00 | 0.00 | 0.00 | 67 | 1017.0 |
| 20260905120524 | 54 | 0 | 0.0 | 2.0 | 0.00 | 0.00 | 0.00 | 67 | 1017.1 |
| 20260905120041 | 54 | 0 | 0.0 | 3.0 | 0.00 | 0.00 | 0.00 | 67 | 1017.1 |
| 20260905115526 | 54 | 57 | 0.0 | 3.0 | 0.00 | 0.00 | 0.00 | 67 | 1017.1 |
| 20260905115021 | 54 | 0 | 0.0 | 0.0 | 0.00 | 0.00 | 0.00 | 67 | 1017.1 |
| 20260905114544 | 54 | 0 | 0.0 | 0.0 | 0.00 | 0.00 | 0.00 | 67 | 1017.1 |
| 20260905114021 | 55 | 0 | 0.0 | 0.0 | 0.00 | 0.00 | 0.00 | 66 | 1017.1 |
| 20260905113523 | 55 | 0 | 0.0 | 0.0 | 0.00 | 0.00 | 0.00 | 66 | 1017.1 |
| 20260905113041 | 54 | 0 | 0.0 | 0.0 | 0.00 | 0.00 | 0.00 | 67 | 1017.1 |
| 20260905112518 | 54 | 0 | 0.0 | 0.0 | 0.00 | 0.00 | 0.00 | 67 | 1017.1 |
| 20260905112024 | 54 | 0 | 0.0 | 0.0 | 0.00 | 0.00 | 0.00 | 67 | 1017.2 |
| 20260905111540 | 54 | 0 | 0.0 | 0.0 | 0.00 | 0.00 | 0.00 | 67 | 1017.2 |
| 20260905111023 | 54 | 0 | 0.0 | 0.0 | 0.00 | 0.00 | 0.00 | 67 | 1017.2 |
| 20260905110528 | 54 | 0 | 0.0 | 0.0 | 0.00 | 0.00 | 0.00 | 67 | 1017.3 |
| 20260905110041 | 54 | 0 | 0.0 | 0.0 | 0.00 | 0.00 | 0.00 | 67 | 1017.3 |
| 20260905105521 | 54 | 0 | 0.0 | 0.0 | 0.00 | 0.00 | 0.00 | 67 | 1017.3 |
| 20260905105020 | 53 | 0 | 0.0 | 0.0 | 0.00 | 0.00 | 0.00 | 67 | 1017.3 |
| 20260905104540 | 53 | 0 | 0.0 | 2.0 | 0.00 | 0.00 | 0.00 | 68 | 1017.3 |
| 20260905104021 | 53 | 0 | 0.0 | 2.0 | 0.00 | 0.00 | 0.00 | 68 | 1017.2 |
| 20260905103520 | 53 | 50 | 1.0 | 3.0 | 0.00 | 0.00 | 0.00 | 68 | 1017.3 |
| 20260905103051 | 53 | 50 | 1.0 | 3.0 | 0.00 | 0.00 | 0.00 | 69 | 1017.4 |
| 20260905102522 | 52 | 63 | 2.0 | 3.0 | 0.00 | 0.00 | 0.00 | 69 | 1017.4 |
| 20260905102024 | 52 | 61 | 1.0 | 3.0 | 0.00 | 0.00 | 0.00 | 69 | 1017.4 |
| 20260905101540 | 52 | 57 | 1.0 | 3.0 | 0.00 | 0.00 | 0.00 | 69 | 1017.5 |
| 20260905101022 | 52 | 67 | 1.0 | 4.0 | 0.00 | 0.00 | 0.00 | 69 | 1017.5 |
| 20260905100521 | 52 | 59 | 1.0 | 4.0 | 0.00 | 0.00 | 0.00 | 69 | 1017.4 |
| 20260905100052 | 52 | 53 | 1.0 | 4.0 | 0.00 | 0.00 | 0.00 | 68 | 1017.4 |
| 20260905095520 | 52 | 63 | 1.0 | 3.0 | 0.00 | 0.00 | 0.00 | 68 | 1017.4 |
| 20260905095021 | 52 | 55 | 1.0 | 3.0 | 0.00 | 0.00 | 0.00 | 68 | 1017.4 |
| 20260905094541 | 52 | 0 | 0.0 | 3.0 | 0.00 | 0.00 | 0.00 | 68 | 1017.4 |
| 20260905094019 | 52 | 71 | 1.0 | 3.0 | 0.00 | 0.00 | 0.00 | 68 | 1017.4 |
| 20260905093525 | 52 | 0 | 1.0 | 3.0 | 0.00 | 0.00 | 0.00 | 68 | 1017.5 |
| 20260905093040 | 52 | 0 | 1.0 | 3.0 | 0.00 | 0.00 | 0.00 | 68 | 1017.5 |
| 20260905092621 | 52 | 64 | 1.0 | 3.0 | 0.00 | 0.00 | 0.00 | 68 | 1017.5 |
| 20260905092022 | 52 | 63 | 1.0 | 3.0 | 0.00 | 0.00 | 0.00 | 68 | 1017.5 |
| 20260905091546 | 52 | 0 | 1.0 | 3.0 | 0.00 | 0.00 | 0.00 | 68 | 1017.5 |
| 20260905091026 | 52 | 51 | 1.0 | 3.0 | 0.00 | 0.00 | 0.00 | 68 | 1017.5 |
| 20260905090522 | 52 | 0 | 0.0 | 0.0 | 0.00 | 0.00 | 0.00 | 68 | 1017.6 |
| 20260905090040 | 52 | 0 | 0.0 | 0.0 | 0.00 | 0.00 | 0.00 | 68 | 1017.5 |
| 20260905085521 | 52 | 0 | 0.0 | 3.0 | 0.00 | 0.00 | 0.00 | 67 | 1017.5 |
| 20260905085024 | 52 | 0 | 0.0 | 3.0 | 0.00 | 0.00 | 0.00 | 67 | 1017.6 |
| 20260905084540 | 52 | 0 | 0.0 | 0.0 | 0.00 | 0.00 | 0.00 | 67 | 1017.6 |
| 20260905084019 | 52 | 0 | 0.0 | 0.0 | 0.00 | 0.00 | 0.00 | 67 | 1017.6 |
| 20260905083526 | 52 | 0 | 0.0 | 0.0 | 0.00 | 0.00 | 0.00 | 67 | 1017.5 |
| 20260905083049 | 52 | 0 | 0.0 | 0.0 | 0.00 | 0.00 | 0.00 | 66 | 1017.5 |
| 20260905082523 | 52 | 0 | 0.0 | 0.0 | 0.00 | 0.00 | 0.00 | 66 | 1017.5 |
| 20260905082022 | 53 | 0 | 0.0 | 0.0 | 0.00 | 0.00 | 0.00 | 65 | 1017.6 |
| 20260905081542 | 53 | 0 | 0.0 | 0.0 | 0.00 | 0.00 | 0.00 | 65 | 1017.6 |
| 20260905081021 | 53 | 0 | 0.0 | 0.0 | 0.00 | 0.00 | 0.00 | 65 | 1017.7 |
| 20260905080521 | 53 | 0 | 0.0 | 0.0 | 0.00 | 0.00 | 0.00 | 65 | 1017.7 |
| 20260905080108 | 53 | 0 | 0.0 | 0.0 | 0.00 | 0.00 | 0.00 | 65 | 1017.7 |
| 20260905075520 | 52 | 0 | 0.0 | 0.0 | 0.00 | 0.00 | 0.00 | 65 | 1017.6 |
| 20260905075023 | 52 | 0 | 0.0 | 0.0 | 0.00 | 0.00 | 0.00 | 65 | 1017.5 |
| 20260905074550 | 52 | 0 | 0.0 | 0.0 | 0.00 | 0.00 | 0.00 | 65 | 1017.6 |
| 20260905074023 | 52 | 0 | 0.0 | 0.0 | 0.00 | 0.00 | 0.00 | 65 | 1017.5 |
| 20260905073523 | 52 | 0 | 0.0 | 0.0 | 0.00 | 0.00 | 0.00 | 65 | 1017.6 |
| 20260905073046 | 52 | 0 | 0.0 | 0.0 | 0.00 | 0.00 | 0.00 | 65 | 1017.6 |
| 20260905072523 | 52 | 0 | 0.0 | 0.0 | 0.00 | 0.00 | 0.00 | 65 | 1017.5 |
| 20260905072021 | 52 | 0 | 0.0 | 0.0 | 0.00 | 0.00 | 0.00 | 65 | 1017.5 |
| 20260905071541 | 52 | 0 | 0.0 | 0.0 | 0.00 | 0.00 | 0.00 | 65 | 1017.4 |
| 20260905071021 | 52 | 0 | 0.0 | 0.0 | 0.00 | 0.00 | 0.00 | 65 | 1017.5 |
| 20260905070521 | 52 | 0 | 0.0 | 0.0 | 0.00 | 0.00 | 0.00 | 65 | 1017.5 |
| 20260905070054 | 53 | 0 | 0.0 | 1.0 | 0.00 | 0.00 | 0.00 | 65 | 1017.5 |
| 20260905065526 | 53 | 0 | 0.0 | 1.0 | 0.00 | 0.00 | 0.00 | 65 | 1017.4 |
| 20260905065022 | 53 | 0 | 0.0 | 1.0 | 0.00 | 0.00 | 0.00 | 64 | 1017.4 |
| 20260905064547 | 53 | 0 | 0.0 | 0.0 | 0.00 | 0.00 | 0.00 | 64 | 1017.5 |
| 20260905064023 | 53 | 0 | 0.0 | 0.0 | 0.00 | 0.00 | 0.00 | 64 | 1017.5 |
| 20260905063522 | 53 | 0 | 0.0 | 0.0 | 0.00 | 0.00 | 0.00 | 64 | 1017.5 |
| 20260905063044 | 53 | 0 | 0.0 | 0.0 | 0.00 | 0.00 | 0.00 | 64 | 1017.5 |
| 20260905062521 | 53 | 0 | 0.0 | 0.0 | 0.00 | 0.00 | 0.00 | 64 | 1017.5 |
| 20260905062020 | 53 | 0 | 0.0 | 0.0 | 0.00 | 0.00 | 0.00 | 64 | 1017.4 |
| 20260905061541 | 53 | 0 | 0.0 | 0.0 | 0.00 | 0.00 | 0.00 | 64 | 1017.4 |
| 20260905061022 | 53 | 0 | 0.0 | 0.0 | 0.00 | 0.00 | 0.00 | 63 | 1017.4 |
| 20260905060522 | 53 | 0 | 0.0 | 0.0 | 0.00 | 0.00 | 0.00 | 63 | 1017.4 |
| 20260905060050 | 53 | 0 | 0.0 | 0.0 | 0.00 | 0.00 | 0.00 | 63 | 1017.5 |
| 20260905055520 | 53 | 0 | 0.0 | 0.0 | 0.00 | 0.00 | 0.00 | 63 | 1017.4 |
| 20260905055022 | 53 | 0 | 0.0 | 0.0 | 0.00 | 0.00 | 0.00 | 63 | 1017.5 |
| 20260905054546 | 53 | 0 | 0.0 | 0.0 | 0.00 | 0.00 | 0.00 | 63 | 1017.6 |
| 20260905054028 | 53 | 0 | 0.0 | 0.0 | 0.00 | 0.00 | 0.00 | 63 | 1017.5 |
| 20260905053523 | 53 | 0 | 0.0 | 0.0 | 0.00 | 0.00 | 0.00 | 63 | 1017.5 |
| 20260905053051 | 53 | 0 | 0.0 | 0.0 | 0.00 | 0.00 | 0.00 | 63 | 1017.5 |
| 20260905052523 | 53 | 0 | 0.0 | 0.0 | 0.00 | 0.00 | 0.00 | 63 | 1017.5 |
| 20260905052021 | 53 | 0 | 0.0 | 0.0 | 0.00 | 0.00 | 0.00 | 63 | 1017.5 |
| 20260905051552 | 53 | 0 | 0.0 | 0.0 | 0.00 | 0.00 | 0.00 | 63 | 1017.7 |
| 20260905051019 | 53 | 0 | 0.0 | 0.0 | 0.00 | 0.00 | 0.00 | 63 | 1017.7 |
| 20260905050519 | 53 | 0 | 0.0 | 0.0 | 0.00 | 0.00 | 0.00 | 63 | 1017.7 |
| 20260905050041 | 53 | 0 | 0.0 | 0.0 | 0.00 | 0.00 | 0.00 | 62 | 1017.7 |
| 20260905045519 | 53 | 0 | 0.0 | 0.0 | 0.00 | 0.00 | 0.00 | 62 | 1017.6 |
| 20260905045023 | 54 | 0 | 0.0 | 0.0 | 0.00 | 0.00 | 0.00 | 62 | 1017.7 |
| 20260905044547 | 54 | 0 | 0.0 | 0.0 | 0.00 | 0.00 | 0.00 | 62 | 1017.6 |
| 20260905044022 | 54 | 0 | 0.0 | 0.0 | 0.00 | 0.00 | 0.00 | 62 | 1017.5 |
| 20260905043521 | 54 | 0 | 0.0 | 0.0 | 0.00 | 0.00 | 0.00 | 62 | 1017.4 |
| 20260905043056 | 54 | 0 | 0.0 | 0.0 | 0.00 | 0.00 | 0.00 | 62 | 1017.4 |
| 20260905042523 | 54 | 0 | 0.0 | 0.0 | 0.00 | 0.00 | 0.00 | 62 | 1017.4 |
| 20260905042020 | 54 | 0 | 0.0 | 0.0 | 0.00 | 0.00 | 0.00 | 62 | 1017.4 |
| 20260905041540 | 54 | 0 | 0.0 | 0.0 | 0.00 | 0.00 | 0.00 | 62 | 1017.3 |
| 20260905041019 | 53 | 0 | 0.0 | 0.0 | 0.00 | 0.00 | 0.00 | 62 | 1017.3 |
| 20260905040520 | 53 | 0 | 0.0 | 0.0 | 0.00 | 0.00 | 0.00 | 63 | 1017.3 |
| 20260905040049 | 53 | 0 | 0.0 | 0.0 | 0.00 | 0.00 | 0.00 | 62 | 1017.2 |
| 20260905035520 | 53 | 0 | 0.0 | 0.0 | 0.00 | 0.00 | 0.00 | 62 | 1017.3 |
| 20260905035019 | 53 | 0 | 0.0 | 0.0 | 0.00 | 0.00 | 0.00 | 63 | 1017.2 |
| 20260905034552 | 53 | 0 | 0.0 | 0.0 | 0.00 | 0.00 | 0.00 | 63 | 1017.2 |
| 20260905034021 | 53 | 0 | 0.0 | 0.0 | 0.00 | 0.00 | 0.00 | 63 | 1017.1 |
| 20260905033522 | 53 | 0 | 0.0 | 0.0 | 0.00 | 0.00 | 0.00 | 63 | 1017.1 |
| 20260905033041 | 53 | 0 | 0.0 | 0.0 | 0.00 | 0.00 | 0.00 | 63 | 1017.1 |
| 20260905032521 | 53 | 0 | 0.0 | 0.0 | 0.00 | 0.00 | 0.00 | 63 | 1016.9 |
| 20260905032020 | 53 | 0 | 0.0 | 0.0 | 0.00 | 0.00 | 0.00 | 63 | 1016.9 |
| 20260905031543 | 53 | 0 | 0.0 | 0.0 | 0.00 | 0.00 | 0.00 | 63 | 1016.9 |
| 20260905031020 | 53 | 0 | 0.0 | 0.0 | 0.00 | 0.00 | 0.00 | 62 | 1016.8 |
| 20260905030525 | 53 | 0 | 0.0 | 0.0 | 0.00 | 0.00 | 0.00 | 62 | 1016.8 |
| 20260905030055 | 54 | 0 | 0.0 | 0.0 | 0.00 | 0.00 | 0.00 | 62 | 1016.7 |
| 20260905025523 | 54 | 0 | 0.0 | 0.0 | 0.00 | 0.00 | 0.00 | 62 | 1016.7 |
| 20260905025027 | 54 | 0 | 0.0 | 0.0 | 0.00 | 0.00 | 0.00 | 61 | 1016.6 |
| 20260905024544 | 54 | 0 | 0.0 | 0.0 | 0.00 | 0.00 | 0.00 | 62 | 1016.6 |
| 20260905024023 | 54 | 0 | 0.0 | 0.0 | 0.00 | 0.00 | 0.00 | 62 | 1016.6 |
| 20260905023531 | 54 | 0 | 0.0 | 0.0 | 0.00 | 0.00 | 0.00 | 61 | 1016.6 |
| 20260905023042 | 54 | 0 | 0.0 | 0.0 | 0.00 | 0.00 | 0.00 | 61 | 1016.7 |
| 20260905022529 | 55 | 0 | 0.0 | 0.0 | 0.00 | 0.00 | 0.00 | 61 | 1016.7 |
| 20260905022026 | 55 | 0 | 0.0 | 0.0 | 0.00 | 0.00 | 0.00 | 60 | 1016.7 |
| 20260905021553 | 56 | 0 | 0.0 | 0.0 | 0.00 | 0.00 | 0.00 | 59 | 1016.7 |
| 20260905021024 | 56 | 0 | 0.0 | 0.0 | 0.00 | 0.00 | 0.00 | 59 | 1016.7 |
| 20260905020527 | 57 | 0 | 0.0 | 0.0 | 0.00 | 0.00 | 0.00 | 58 | 1016.7 |
| 20260905020052 | 57 | 0 | 0.0 | 2.0 | 0.00 | 0.00 | 0.00 | 56 | 1016.6 |
| 20260905015520 | 57 | 0 | 0.0 | 2.0 | 0.00 | 0.00 | 0.00 | 55 | 1016.7 |
| 20260905015023 | 58 | 0 | 0.0 | 5.0 | 0.00 | 0.00 | 0.00 | 54 | 1016.8 |
| 20260905014543 | 58 | 0 | 0.0 | 5.0 | 0.00 | 0.00 | 0.00 | 53 | 1016.8 |
| 20260905014026 | 59 | 229 | 3.0 | 5.0 | 0.00 | 0.00 | 0.00 | 52 | 1016.8 |
| 20260905013525 | 59 | 238 | 2.0 | 5.0 | 0.00 | 0.00 | 0.00 | 51 | 1016.6 |
| 20260905013042 | 60 | 209 | 2.0 | 6.0 | 0.00 | 0.00 | 0.00 | 51 | 1016.6 |
| 20260905012526 | 60 | 211 | 2.0 | 6.0 | 0.00 | 0.00 | 0.00 | 51 | 1016.6 |
| 20260905012023 | 60 | 221 | 2.0 | 6.0 | 0.00 | 0.00 | 0.00 | 51 | 1016.6 |
| 20260905011611 | 60 | 209 | 1.0 | 6.0 | 0.00 | 0.00 | 0.00 | 51 | 1016.6 |